"Period start","avg(HW err(1)/warn(2) (#))","avg(Visibility (m))","avg(Weather code (#))","avg(Precip intensity (mm/h))","min(HW err(1)/warn(2) (#))","max(HW err(1)/warn(2) (#))","std(HW err(1)/warn(2) (#))","med(HW err(1)/warn(2) (#))","min(Visibility (m))","max(Visibility (m))","std(Visibility (m))","med(Visibility (m))","min(Weather code (#))","max(Weather code (#))","std(Weather code (#))","med(Weather code (#))","min(Precip intensity (mm/h))","max(Precip intensity (mm/h))","std(Precip intensity (mm/h))","med(Precip intensity (mm/h))"
2014-06-03 00:00:00,2,7351,4,0.00,2,2,0,2,3359,23704,5950,4577,0,10,5,0,0.00,0.00,0.00,0.00
2014-06-03 00:10:00,2,35443,10,0.00,2,2,0,2,8292,50000,13970,39728,10,10,0,10,0.00,0.00,0.00,0.00
2014-06-03 00:20:00,2,44027,0,0.00,2,2,0,2,23922,50000,8550,49126,0,0,0,0,0.00,0.00,0.00,0.00
2014-06-03 00:30:00,2,14211,0,0.00,2,2,0,2,5136,33969,9227,10079,0,0,0,0,0.00,0.00,0.00,0.00
2014-06-03 00:40:00,2,6950,7,0.00,2,2,0,2,3505,11126,2908,5557,0,10,5,10,0.00,0.00,0.00,0.00
2014-06-03 00:50:00,2,6029,10,0.00,2,2,0,2,3321,10440,2042,5239,10,10,0,10,0.00,0.00,0.00,0.00
2014-06-03 01:00:00,2,8335,10,0.00,2,2,0,2,4463,18960,4857,5713,10,10,0,10,0.00,0.00,0.00,0.00
2014-06-03 01:10:00,2,9060,10,0.00,2,2,0,2,3994,27566,6607,6814,10,10,0,10,0.00,0.00,0.00,0.00
2014-06-03 01:20:00,2,4617,10,0.00,2,2,0,2,2995,8576,1693,3942,10,10,0,10,0.00,0.00,0.00,0.00
2014-06-03 01:30:00,2,7424,10,0.00,2,2,0,2,3868,22627,5718,4861,10,10,0,10,0.00,0.00,0.00,0.00
2014-06-03 01:40:00,2,6068,10,0.00,2,2,0,2,3023,9472,1823,5504,10,10,0,10,0.00,0.00,0.00,0.00
2014-06-03 01:50:00,2,7413,10,0.00,2,2,0,2,3457,10205,2329,7764,10,10,0,10,0.00,0.00,0.00,0.00
2014-06-03 02:00:00,2,4485,10,0.00,2,2,0,2,2903,8219,1840,3359,10,10,0,10,0.00,0.00,0.00,0.00
2014-06-03 02:10:00,2,4324,10,0.00,2,2,0,2,2794,7336,1297,4337,10,10,0,10,0.00,0.00,0.00,0.00
2014-06-03 02:20:00,2,2967,10,0.00,2,2,0,2,2468,3887,427,2896,10,10,0,10,0.00,0.00,0.00,0.00
2014-06-03 02:30:00,2,7173,10,0.00,2,2,0,2,5147,11454,1856,6668,10,10,0,10,0.00,0.00,0.00,0.00
2014-06-03 02:40:00,2,4500,10,0.00,2,2,0,2,2783,5984,853,4537,10,10,0,10,0.00,0.00,0.00,0.00
2014-06-03 02:50:00,2,7926,10,0.00,2,2,0,2,5297,11956,2098,7310,10,10,0,10,0.00,0.00,0.00,0.00
2014-06-03 03:00:00,2,6380,10,0.00,2,2,0,2,3498,11747,2602,5949,10,10,0,10,0.00,0.00,0.00,0.00
2014-06-03 03:10:00,2,10722,10,0.00,2,2,0,2,7723,15735,2451,10656,10,10,0,10,0.00,0.00,0.00,0.00
2014-06-03 03:20:00,2,9698,10,0.00,2,2,0,2,3715,19527,4953,8918,10,10,0,10,0.00,0.00,0.00,0.00
2014-06-03 03:30:00,2,8400,10,0.00,2,2,0,2,5566,14056,2473,8346,10,10,0,10,0.00,0.00,0.00,0.00
2014-06-03 03:40:00,2,21998,9,0.00,2,2,0,2,9864,39059,7668,21778,0,10,3,10,0.00,0.00,0.00,0.00
2014-06-03 03:50:00,2,26063,0,0.00,2,2,0,2,7111,50000,17011,22140,0,0,0,0,0.00,0.00,0.00,0.00
2014-06-03 04:00:00,2,39921,0,0.00,2,2,0,2,24118,50000,9465,40454,0,0,0,0,0.00,0.00,0.00,0.00
2014-06-03 04:10:00,2,34988,0,0.00,2,2,0,2,25870,47176,7223,33510,0,0,0,0,0.00,0.00,0.00,0.00
2014-06-03 04:20:00,2,39630,0,0.00,2,2,0,2,23321,50000,7933,40482,0,0,0,0,0.00,0.00,0.00,0.00
2014-06-03 04:30:00,2,33508,0,0.00,2,2,0,2,18114,50000,13086,30435,0,0,0,0,0.00,0.00,0.00,0.00
2014-06-03 04:40:00,2,24734,0,0.00,2,2,0,2,12041,40246,9405,26200,0,0,0,0,0.00,0.00,0.00,0.00
2014-06-03 04:50:00,2,29781,0,0.00,2,2,0,2,17767,42403,7068,30913,0,0,0,0,0.00,0.00,0.00,0.00
2014-06-03 05:00:00,2,38219,0,0.00,2,2,0,2,28117,46146,6124,39958,0,0,0,0,0.00,0.00,0.00,0.00
2014-06-03 05:10:00,2,34116,0,0.00,2,2,0,2,20031,46357,8030,36211,0,0,0,0,0.00,0.00,0.00,0.00
2014-06-03 05:20:00,2,31872,0,0.00,2,2,0,2,11492,50000,15123,33515,0,0,0,0,0.00,0.00,0.00,0.00
2014-06-03 05:30:00,2,38957,0,0.00,2,2,0,2,29244,49235,5752,38260,0,0,0,0,0.00,0.00,0.00,0.00
2014-06-03 05:40:00,2,41544,0,0.00,2,2,0,2,25205,50000,8524,43368,0,0,0,0,0.00,0.00,0.00,0.00
2014-06-03 05:50:00,2,39690,0,0.00,2,2,0,2,17062,50000,12348,45301,0,0,0,0,0.00,0.00,0.00,0.00
2014-06-03 06:00:00,2,32906,0,0.00,2,2,0,2,14777,50000,11990,34870,0,0,0,0,0.00,0.00,0.00,0.00
2014-06-03 06:10:00,2,33808,0,0.00,2,2,0,2,14330,50000,13230,33931,0,0,0,0,0.00,0.00,0.00,0.00
2014-06-03 06:20:00,2,21420,0,0.00,2,2,0,2,12943,32617,7497,19221,0,0,0,0,0.00,0.00,0.00,0.00
2014-06-03 06:30:00,2,25817,0,0.00,2,2,0,2,7520,50000,15402,21284,0,0,0,0,0.00,0.00,0.00,0.00
2014-06-03 06:40:00,2,19857,0,0.00,2,2,0,2,4400,44052,12330,17210,0,0,0,0,0.00,0.00,0.00,0.00
2014-06-03 06:50:00,2,20894,0,0.00,2,2,0,2,10421,38770,10810,16014,0,0,0,0,0.00,0.00,0.00,0.00
2014-06-03 07:00:00,2,25194,0,0.00,2,2,0,2,20059,36910,4866,23542,0,0,0,0,0.00,0.00,0.00,0.00
"Period start","avg(HW err(1)/warn(2) (#))","avg(Visibility (m))","avg(Weather code (#))","avg(Precip intensity (mm/h))","min(HW err(1)/warn(2) (#))","max(HW err(1)/warn(2) (#))","std(HW err(1)/warn(2) (#))","med(HW err(1)/warn(2) (#))","min(Visibility (m))","max(Visibility (m))","std(Visibility (m))","med(Visibility (m))","min(Weather code (#))","max(Weather code (#))","std(Weather code (#))","med(Weather code (#))","min(Precip intensity (mm/h))","max(Precip intensity (mm/h))","std(Precip intensity (mm/h))","med(Precip intensity (mm/h))"
2014-06-03 07:30:00,2,21073,0,0.00,2,2,0,2,7872,43816,12154,19873,0,0,0,0,0.00,0.00,0.00,0.00
2014-06-03 07:40:00,2,19818,0,0.00,2,2,0,2,9469,49553,12340,15124,0,0,0,0,0.00,0.00,0.00,0.00
2014-06-03 07:50:00,2,9123,4,0.00,2,2,0,2,4215,25113,5609,7960,0,10,5,0,0.00,0.00,0.00,0.00
2014-06-03 08:00:00,2,20157,5,0.00,2,2,0,2,5486,50000,16318,13239,0,10,5,5,0.00,0.00,0.00,0.00
2014-06-03 08:10:00,2,8864,7,0.00,2,2,0,2,1648,28507,9925,3776,0,10,5,10,0.00,0.00,0.00,0.00
2014-06-03 08:20:00,2,7309,10,0.00,2,2,0,2,2622,19071,5790,4395,10,10,0,10,0.00,0.00,0.00,0.00
2014-06-03 08:30:00,2,3617,49,0.01,2,2,0,2,2067,7021,1599,3140,10,77,25,41,0.00,0.05,0.02,0.00
2014-06-03 08:40:00,2,3974,70,0.00,2,2,0,2,2835,6315,899,3784,10,77,20,77,0.00,0.00,0.00,0.00
2014-06-03 08:50:00,2,5680,10,0.00,2,2,0,2,2248,9640,2403,5518,10,10,0,10,0.00,0.00,0.00,0.00
2014-06-03 09:00:00,2,5000,16,0.01,2,2,0,2,2140,8828,2618,4563,10,41,12,10,0.00,0.05,0.02,0.00
2014-06-03 09:10:00,2,5507,73,0.04,2,2,0,2,2027,14563,3395,4756,41,77,11,77,0.00,0.05,0.02,0.05
2014-06-03 09:20:00,2,5039,77,0.04,2,2,0,2,1659,11455,4064,2696,77,77,0,77,0.00,0.15,0.05,0.03
2014-06-03 09:30:00,2,13318,36,0.00,2,2,0,2,5304,24825,6189,10423,0,77,34,10,0.00,0.00,0.00,0.00
2014-06-03 09:40:00,2,12327,0,0.00,2,2,0,2,4842,26657,6537,11234,0,0,0,0,0.00,0.00,0.00,0.00
2014-06-03 09:50:00,2,33852,0,0.00,2,2,0,2,14326,48315,10275,34816,0,0,0,0,0.00,0.00,0.00,0.00
2014-06-03 10:00:00,2,20351,0,0.00,2,2,0,2,8857,44870,11184,15772,0,0,0,0,0.00,0.00,0.00,0.00
2014-06-03 10:10:00,2,5088,7,0.00,2,2,0,2,2294,10623,2172,4471,0,10,5,10,0.00,0.00,0.00,0.00
2014-06-03 10:20:00,2,11634,10,0.00,2,2,0,2,1994,28753,10156,5189,10,10,0,10,0.00,0.00,0.00,0.00
2014-06-03 10:30:00,2,18650,6,0.00,2,2,0,2,2275,50000,15121,12512,0,10,5,10,0.00,0.00,0.00,0.00
2014-06-03 10:40:00,2,15963,0,0.00,2,2,0,2,5825,26157,7121,14766,0,0,0,0,0.00,0.00,0.00,0.00
2014-06-03 10:50:00,2,10756,2,0.00,2,2,0,2,2578,31347,8131,8536,0,10,4,0,0.00,0.00,0.00,0.00
2014-06-03 11:00:00,2,14521,10,0.00,2,2,0,2,1840,41110,11552,12779,10,10,0,10,0.00,0.00,0.00,0.00
2014-06-03 11:10:00,2,21258,10,0.00,2,2,0,2,8286,36925,9703,18938,10,10,0,10,0.00,0.00,0.00,0.00
2014-06-03 11:20:00,2,9869,7,0.00,2,2,0,2,1636,31780,9573,5801,0,10,5,10,0.00,0.00,0.00,0.00
2014-06-03 11:30:00,2,7870,10,0.00,2,2,0,2,1482,31054,8831,4334,10,10,0,10,0.00,0.00,0.00,0.00
2014-06-03 11:40:00,2,1902,10,0.00,2,2,0,2,732,5424,1233,1509,10,10,0,10,0.00,0.00,0.00,0.00
2014-06-03 11:50:00,2,16723,10,0.00,2,2,0,2,1019,49231,15124,11312,10,10,0,10,0.00,0.00,0.00,0.00
2014-06-03 12:00:00,2,28204,4,0.00,2,2,0,2,4912,50000,15041,26632,0,10,5,0,0.00,0.00,0.00,0.00
2014-06-03 12:10:00,2,6023,42,0.03,2,2,0,2,1586,19971,5382,3598,0,77,31,40,0.00,0.15,0.05,0.00
2014-06-03 12:20:00,2,27144,75,0.02,2,2,0,2,12259,50000,12674,26688,71,77,3,77,0.00,0.05,0.02,0.00
2014-06-03 12:30:00,2,8976,57,0.88,2,2,0,2,1544,50000,14616,2370,0,71,28,71,0.00,1.80,0.62,1.02
2014-06-03 12:40:00,2,13621,57,0.15,2,2,0,2,3222,38288,13124,7335,0,71,28,71,0.00,0.80,0.24,0.08
2014-06-03 12:50:00,2,14445,50,0.17,2,2,0,2,3120,40121,12373,8386,0,71,33,71,0.00,0.80,0.27,0.03
2014-06-03 13:00:00,2,3807,75,0.35,2,2,0,2,2635,7057,1273,3281,71,77,3,77,0.05,0.70,0.18,0.38
2014-06-03 13:10:00,2,1574,72,2.66,2,2,0,2,1213,2296,281,1520,71,77,2,71,0.80,3.85,0.80,2.65
2014-06-03 13:20:00,2,7597,71,0.76,2,2,0,2,1932,21725,6324,5626,71,71,0,71,0.00,2.00,0.78,0.33
2014-06-03 13:30:00,2,7516,75,0.75,2,2,0,2,1692,17959,5631,6546,71,77,3,77,0.00,2.20,0.85,0.20
2014-06-03 13:40:00,2,2404,71,0.97,2,2,0,2,1479,4326,872,2089,71,71,0,71,0.30,1.70,0.39,1.05
2014-06-03 13:50:00,2,4241,71,0.36,2,2,0,2,2957,6062,1011,4097,71,71,0,71,0.10,0.70,0.19,0.35
2014-06-03 14:00:00,2,3511,71,0.94,2,2,0,2,1412,10422,2475,2760,71,71,0,71,0.05,3.80,1.06,0.60
2014-06-03 14:10:00,2,1431,71,2.79,2,2,0,2,1243,1695,119,1420,71,71,0,71,2.05,3.45,0.43,2.85
2014-06-03 14:20:00,2,8548,71,0.18,2,2,0,2,2615,12794,3342,9208,71,71,0,71,0.00,0.70,0.21,0.10
2014-06-03 14:30:00,2,18655,75,0.07,2,2,0,2,3412,37005,9828,17744,71,77,3,77,0.00,0.40,0.11,0.05
2014-06-03 14:40:00,2,13740,76,0.03,2,2,0,2,7786,25177,4802,12224,71,77,2,77,0.00,0.05,0.02,0.05
2014-06-03 14:50:00,2,33046,66,0.00,2,2,0,2,19820,50000,9559,30126,0,77,22,71,0.00,0.00,0.00,0.00
2014-06-03 15:00:00,2,15440,64,0.18,2,2,0,2,3126,50000,13324,12096,0,71,21,71,0.00,0.60,0.22,0.08
2014-06-03 15:10:00,2,5213,71,0.33,2,2,0,2,3357,9184,1794,4806,71,71,0,71,0.05,0.65,0.20,0.38
2014-06-03 15:20:00,2,2716,71,0.54,2,2,0,2,1809,3636,739,2597,71,71,0,71,0.25,0.85,0.17,0.55
2014-06-03 15:30:00,2,1614,71,2.94,2,2,0,2,1154,3017,521,1559,71,71,0,71,0.50,5.00,1.45,2.90
2014-06-03 15:40:00,2,12239,71,0.25,2,2,0,2,2673,38170,10333,8996,71,71,0,71,0.00,0.80,0.24,0.17
2014-06-03 15:50:00,2,12923,77,0.14,2,2,0,2,4556,39001,9390,9650,77,77,0,77,0.00,0.95,0.27,0.05
2014-06-03 16:00:00,2,5608,71,0.28,2,2,0,2,3502,7544,1430,5692,71,71,0,71,0.00,1.30,0.36,0.17
2014-06-03 16:10:00,2,3152,71,1.96,2,2,0,2,1037,8383,2565,1802,71,71,0,71,0.00,5.75,1.68,1.90
2014-06-03 16:20:00,2,19655,71,0.07,2,2,0,2,2173,37116,10625,20134,71,71,0,71,0.00,0.55,0.16,0.00
2014-06-03 16:30:00,2,5499,74,0.30,2,2,0,2,2824,9518,2331,4865,71,77,3,71,0.00,1.00,0.31,0.20
2014-06-03 16:40:00,2,5440,73,0.24,2,2,0,2,2234,9186,1875,5398,71,77,3,71,0.00,0.85,0.24,0.15
2014-06-03 16:50:00,2,11222,74,0.42,2,2,0,2,2075,27918,9642,4835,71,77,3,71,0.00,1.80,0.65,0.10
2014-06-03 17:00:00,2,1641,71,1.63,2,2,0,2,1105,3262,640,1564,71,71,0,71,0.85,2.50,0.52,1.60
2014-06-03 17:10:00,2,8248,73,0.12,2,2,0,2,3635,14744,3621,7726,71,77,3,71,0.00,0.45,0.14,0.05
2014-06-03 17:20:00,2,4813,73,0.25,2,2,0,2,2857,7463,1172,4978,71,77,3,71,0.10,0.55,0.15,0.20
2014-06-03 17:30:00,2,13422,76,0.06,2,2,0,2,6884,25287,6572,9845,71,77,2,77,0.00,0.25,0.07,0.05
2014-06-03 17:40:00,2,3901,73,0.22,2,2,0,2,2648,6154,1175,3622,71,77,3,71,0.05,0.70,0.22,0.12
2014-06-03 17:50:00,2,8918,76,0.06,2,2,0,2,3572,14986,3656,8380,71,77,2,77,0.00,0.20,0.05,0.05
2014-06-03 18:00:00,2,10134,76,0.04,2,2,0,2,2365,25488,5862,8968,71,77,2,77,0.00,0.10,0.03,0.05
2014-06-03 18:10:00,2,2105,76,0.07,2,2,0,2,951,3913,892,1962,71,77,2,77,0.00,0.20,0.05,0.05
2014-06-03 18:20:00,2,10208,65,0.04,2,2,0,2,6166,26216,5493,8614,41,77,16,74,0.00,0.10,0.04,0.05
2014-06-03 18:30:00,2,7457,71,0.04,2,2,0,2,3587,10397,2017,7400,41,77,10,74,0.00,0.10,0.03,0.05
2014-06-03 18:40:00,2,15800,59,0.04,2,2,0,2,3753,23869,6535,16474,41,77,18,59,0.00,0.05,0.02,0.05
2014-06-03 18:50:00,2,12878,57,0.02,2,2,0,2,8589,19740,3514,12468,41,77,16,56,0.00,0.05,0.02,0.00
2014-06-03 19:00:00,2,2529,23,0.00,2,2,0,2,1427,4696,969,2334,10,77,26,10,0.00,0.00,0.00,0.00
2014-06-03 19:10:00,2,3851,10,0.00,2,2,0,2,2010,6079,1216,3550,10,10,0,10,0.00,0.00,0.00,0.00
2014-06-03 19:20:00,2,12190,10,0.00,2,2,0,2,7902,21430,4165,10258,10,10,0,10,0.00,0.00,0.00,0.00
2014-06-03 19:30:00,2,24561,1,0.00,2,2,0,2,15922,36904,7142,22368,0,10,3,0,0.00,0.00,0.00,0.00
2014-06-03 19:40:00,2,16249,0,0.00,2,2,0,2,9634,35377,8293,12079,0,0,0,0,0.00,0.00,0.00,0.00
2014-06-03 19:50:00,2,29550,0,0.00,2,2,0,2,17158,44760,8819,29474,0,0,0,0,0.00,0.00,0.00,0.00
2014-06-03 20:00:00,2,39577,0,0.00,2,2,0,2,19116,50000,11421,44592,0,0,0,0,0.00,0.00,0.00,0.00
2014-06-03 20:10:00,2,46055,0,0.00,2,2,0,2,36084,50000,4357,46699,0,0,0,0,0.00,0.00,0.00,0.00
2014-06-03 20:20:00,2,46534,0,0.00,2,2,0,2,35156,50000,4362,48346,0,0,0,0,0.00,0.00,0.00,0.00
2014-06-03 20:30:00,2,35802,0,0.00,2,2,0,2,22748,49168,7919,34582,0,0,0,0,0.00,0.00,0.00,0.00
2014-06-03 20:40:00,2,15452,0,0.00,2,2,0,2,8134,29637,6587,14140,0,0,0,0,0.00,0.00,0.00,0.00
2014-06-03 20:50:00,2,9284,2,0.00,2,2,0,2,6273,13718,2193,9254,0,10,4,0,0.00,0.00,0.00,0.00
2014-06-03 21:00:00,2,10153,10,0.00,2,2,0,2,5423,16920,3785,8794,10,10,0,10,0.00,0.00,0.00,0.00
2014-06-03 21:10:00,2,5245,10,0.00,2,2,0,2,3168,6898,1146,5594,10,10,0,10,0.00,0.00,0.00,0.00
2014-06-03 21:20:00,2,3413,10,0.00,2,2,0,2,2403,4873,861,3261,10,10,0,10,0.00,0.00,0.00,0.00
2014-06-03 21:30:00,2,4009,10,0.00,2,2,0,2,1965,7671,1493,3638,10,10,0,10,0.00,0.00,0.00,0.00
2014-06-03 21:40:00,2,7391,10,0.00,2,2,0,2,2537,15383,3707,6984,10,10,0,10,0.00,0.00,0.00,0.00
2014-06-03 21:50:00,2,14368,6,0.00,2,2,0,2,7550,23802,6418,11123,0,10,5,10,0.00,0.00,0.00,0.00
2014-06-03 22:00:00,2,21165,0,0.00,2,2,0,2,8432,37460,11290,19844,0,0,0,0,0.00,0.00,0.00,0.00
2014-06-03 22:10:00,2,28623,0,0.00,2,2,0,2,24744,32045,2266,29008,0,0,0,0,0.00,0.00,0.00,0.00
2014-06-03 22:20:00,2,44992,0,0.00,2,2,0,2,35581,50000,4744,44638,0,0,0,0,0.00,0.00,0.00,0.00
2014-06-03 22:30:00,2,47448,0,0.00,2,2,0,2,40314,50000,3926,50000,0,0,0,0,0.00,0.00,0.00,0.00
2014-06-03 22:40:00,2,44182,0,0.00,2,2,0,2,34894,50000,4595,43717,0,0,0,0,0.00,0.00,0.00,0.00
2014-06-03 22:50:00,2,47231,0,0.00,2,2,0,2,37057,50000,4387,50000,0,0,0,0,0.00,0.00,0.00,0.00
2014-06-03 23:00:00,2,46086,0,0.00,2,2,0,2,41004,50000,3836,46457,0,0,0,0,0.00,0.00,0.00,0.00
2014-06-03 23:10:00,2,44239,0,0.00,2,2,0,2,34591,50000,4740,44029,0,0,0,0,0.00,0.00,0.00,0.00
2014-06-03 23:20:00,2,46022,0,0.00,2,2,0,2,39401,50000,3951,47134,0,0,0,0,0.00,0.00,0.00,0.00
2014-06-03 23:30:00,2,9094,5,0.00,2,2,0,2,2106,50000,13888,3698,0,10,5,5,0.00,0.00,0.00,0.00
2014-06-03 23:40:00,2,1376,49,0.13,2,2,0,2,971,2285,444,1202,10,77,25,41,0.00,0.30,0.09,0.12
2014-06-03 23:50:00,2,1128,76,0.47,2,2,0,2,876,1480,204,1030,71,77,2,77,0.10,0.85,0.24,0.55
